Location: Colebrook
(42.0017°N, 73.0973°W)
Time: 11:11:08
(UTC-04:00)

Vanguard 1 - Visible Passes

Search period start: 25 October 2021 00:00
Search period end: 04 November 2021 00:00
Orbit: 653 x 3829 km, 34.2° (Epoch: 24 October)

Date Brightness Start Highest point End Pass type
(mag) Time Alt. Az. Time Alt. Az. Time Alt. Az.
26 Oct 13.3 18:13:50 10° WSW 18:18:34 16° SSW 18:24:52 10° S visible
27 Oct 13.6 18:37:25 10° SW 18:39:39 11° SSW 18:42:08 10° SSW visible
03 Nov 13.3 07:02:04 10° S 07:04:55 12° SSE 07:07:23 10° SE visible
